Location: Zapote
(9.9191°N, 84.0597°W)
Time: 11:59:02
(UTC-06:00)

Courier 1B Rocket - Pass Details

Date: 04 March 2021
Orbit: 920 x 1202 km, 28.2° (Epoch: 12 April)

Event Time Altitude Azimuth Distance (km) Brightness Sun altitude
Rises 18:28:36 0° 308° (NW) 4,038 9.0 -11.0°
Reaches altitude 10° 18:31:46 10° 318° (NW) 3,100 8.2 -11.8°
Maximum altitude 18:38:35 33° 19° (NNE) 1,904 6.3 -13.5°
Enters shadow 18:43:20 18° 70° (ENE) 2,566 6.6 -14.7°
